Погода в Гызыларбате

Погода в Гызыларбате : погода сейчас, прогноз погоды и архив. Всё, что Вы хотите узнать о погоде в Гызыларбате!

Хотите узнать прогноз погоды в Гызыларбате? Тогда Вам сюда: Погода в Гызыларбате

Поиск расширенной информации на нашем сайте:

Другие новости

Новости СМИ2

Главная страница сайта

Новости сайта

03.07.2017

Напоминаем, что на нашем специализированном сайте Метеоцентр.Азия вы можете получить высокодетализированные автоматические прогнозы погоды по пунктам России, СНГ и мира в авиационном формате (включающие направление и скорость ветра, видимость, явления погоды, количество и форму облачности, нижнюю и верхнюю границу облачности).

Рекомендуем: Хохлома - хохломские узоры в векторе.

Погода в Гызыларбате - сегодня

Время (UTC), дата Ветер
(°,м/с) 
Видим.   Явления Облачность Т
(°С)
Тd
(°С)
f(%) Тe
(°С)
Pmin
(гПа)
dP
(гПа)
Po
(мм)
O2
(г/м3)
Тmin Tmax R s Состояние
почвы
21 21.11.17 тихо ()   10 км    ясно 
+8.7 +1.7 61 +9  1006.2  -2.1  747  291           
00 22.11.17 тихо ()   10 км    3/0 верхняя 
[Ci]
+7.8 +0.2 59 +8  1005.1  -1  746  292           
03 22.11.17 070 (В) 20000 м    9/8 900 м средняя 
[Cu med, cong|As trans]
+7.1 +0.2 61 +7  1004.8  -0.4  746  293           
06 22.11.17 130 (ЮВ) 20000 м    9/8 900 м средняя 
[Cu med, cong|Ac trans]
+15.4 -1.7 31 +17  1004.8  0.2  746  285  +6.6         
09 22.11.17 200 (Ю) 20000 м    6/6 800 м 
[Cu med, cong]
+26.8 -9.4 9 +27  1003  -1.3  745  274           
12 22.11.17 200 (Ю) 20000 м    4/4 600 м 
[Cu med, cong]
+27.6 -7.4 9 +28  1002.4  -0.6  745  273           
15 22.11.17 240 (ЮЗ) 10 км    ясно 
+20.4 +5.5 38 +20  1005.1  2.5  746  279    +27.8       
18 22.11.17 270 (З) 10 км    4/0 средняя 
[Ac trans]
+19 +5 40 +19  1006.3  1.1  747  281    +27.8       
21 22.11.17 300 (СЗ) 10 км    4/4 600 м 
[Cu med, cong]
+12.6 +10.5 87 +14  1008.4  1.9  749  286           
00 23.11.17 270 (З) 10 км    8/8 600 м 
[Sc]
+11.4 +9.8 90 +13  1010.2  1.7  750  288           
03 23.11.17 220 (ЮЗ) 20000 м    8/8 700 м 
[Sc]
+10.4 +8.1 86 +12  1010.9  0.6  750  290           
06 23.11.17 тихо ()   20000 м    8/0 средняя 
[Ac trans]
+11.2 +6.5 73 +11  1011.2  0.4  751  289  +10.3         
09 23.11.17 320 (СЗ) 20000 м    6/6 800 м 
[Cu med, cong]
+12.4 +6.1 65 +12  1011.2  751  288           
12 23.11.17 320 (СЗ) 20000 м    9/9 800 м 
[Cu med, cong]
+13.2 +5 57 +12  1012.4  1.3  752  288           
15 23.11.17 290 (З) 10 км  в посл. час ливневой дождь  10/10 300 м кучево-дожд. 
[Cb cap]
+11.4 +7.7 78 +13  1013.8  1.3  753  290    +13.6  0.0     
18 23.11.17 тихо ()   10 км  {ливн. осадки}  8/8 600 м кучево-дожд. 
[Cb cap]
+10.1 +7.6 84 +10  1015.3  1.4  754  292    +13.6  0.0     
21 23.11.17 240 (ЮЗ) 10 км    10/10 600 м 
[Sc]
+8.7 +6.2 84 +10  1016.4  754  294           
00 24.11.17 тихо ()   10 км    8/8 600 м 
[Sc]
+8 +6.2 88 +8  1017.5  1.1  755  295           
03 24.11.17 040 (СВ) 20000 м    9/9 600 м 
[Sc]
+7.7 +6.4 91 +9  1018  0.5  756  295      0.0     
06 24.11.17 100 (В) 20000 м    9/8 700 м верхняя 
[Cu Sc|Ci fib]
+8.6 +6.7 88 +9  1018  756  294  +7.3    0.0     
09 24.11.17 090 (В) 20000 м    10/10 600 м 
[Cu Sc]
+11.2 +6.5 73 +10  1015.3  -2.5  754  291           
12 24.11.17 090 (В) 10 км  слаб. ливневой дождь  10/10 600 м кучево-дожд. 
[Cb cap]
+10.3 +7.6 83 +9  1015.7  0.3  754  291    +1.1       
15 24.11.17 040 (СВ) 4000 м  ливневой дождь  10/10 600 м кучево-дожд. 
[Cb cap]
+8.4 +7.6 95 +7  1017.4  1.6  755  294    +11.6     
18 24.11.17 050 (СВ) 10 км  слаб. ливневой дождь  10/10 300 м кучево-дожд. 
[Cb cap]
+7.2 +6.8 97 +6  1018  0.6  756  296    +11.6     
21 24.11.17 020 (С) 10 км  слаб. ливневой дождь  10/10 300 м кучево-дожд. 
[Cb cap]
+7.2 +6.8 97 +7  1018.2  0.2  756  296           
Время (UTC), дата Ветер
(°,м/с) 
Видим.   Явления Облачность Т
(°С)
Тd
(°С)
f(%) Тe
(°С)
Pmin
(гПа)
dP
(гПа)
Po
(мм)
O2
(г/м3)
Тmin Tmax R s Состояние
почвы

Для получения пояснительной информации подведите курсор к названию столбца.

ПОГОДА в Гызыларбате - архив

Всё, что Вы хотите узнать о погоде в Гызыларбате - удобно и подробно!

Выберите нужную дату (начиная с 1 января 2015* года) и нажмите кнопку "Найти".
Будут отображены архивные сводки погоды по пункту Гызыларбат, начиная с указанной даты.


Отображать данные в формате CSV (для использования в таблицах Excel)


Внимание! Наш архив погоды предназначен исключительно для личного некоммерческого использования в познавательных целях. Если Вам необходимы официальные справки о состоянии погоды (для производственных, юридических, коммерческих и т.п. целей), обращайтесь в органы Росгидромета.

*Примечание: данная дата относится к архиву по метеостанциям СССР (Россия, СНГ, Балтия).
Архив по метеостанциям Зарубежной Европы и Азии (кроме Китая) хранится 10 дней, по другим регионам земного шара (Китай, Африка, Америка, Австралия, Океания) - 1 день.

Гызыларбат - район местоположения метеостанции


Название, широта, долгота, высота метеостанции:
Гызыларбат 39°ш. 56.3°д. 92 м над ур. моря [Туркменистан]

Дополнительная информация

В oтличие oт бoльшинства пoгoдных сайтoв мы публикуем пoдрoбную метеoинфoрмацию в детальнoм прoфессиoнальнoм фoрмате.

Характеристики температуры и влажнoсти вoздуха измеряются на высoте 2 м в тени вдали oт зданий и деревьев.
Скoрoсть ветра измеряется на высoте 10 м (на урoвне рoста челoвека скoрoсть ветра ниже в 1.5-2 раза). Если метеoстанция нахoдится в гoрoде или в лесу, тo скoрoсть ветра занижена на 2-4 м/с пo сравнению с oткрытым местoм. Скoрoсть ветра над акватoриями крупных рек и oзёр, а также на вершинах хoлмoв на 2-5 м/с выше, чем в oбычных услoвиях.
Атмoсфернoе давление в разных тoчках местнoсти мoжет значительнo oтличаться oт давления на метеoстанции, в зависимoсти oт услoвий рельефа (при пoдъёме на 10 м давление пoнижается примернo на 1 мм рт.ст.).